EW5619 Weather Reports


time (UTC)temp
C
wind
direction
speed
KPH
gust
KPH
rain 1hr
cm
rain 24hr
cm
rain mn
cm
humidity
%
barometer
mb
20260507040025 7 254 1.6 3.2 0.00 0.89 0.00 87 1007.8
20260507035403 6 259 1.6 3.2 0.00 0.89 0.89 87 1007.7
20260507034503 7 263 4.8 4.8 0.00 0.89 0.89 87 1007.8
20260507033603 6 261 8.0 9.7 0.00 0.89 0.89 87 1007.9
20260507032704 6 268 3.2 6.4 0.00 0.89 0.89 87 1008.0
20260507031803 6 265 6.4 6.4 0.00 0.89 0.89 87 1008.0
20260507030903 6 259 8.0 11.3 0.00 0.89 0.89 88 1008.3
20260507030024 6 252 1.6 4.8 0.00 0.89 0.89 88 1008.4
20260507025403 6 271 1.6 4.8 0.00 0.89 0.89 89 1008.2
20260507024502 6 280 3.2 4.8 0.00 0.89 0.89 88 1008.2
20260507023624 7 257 0.0 1.6 0.00 0.89 0.89 87 1008.1
20260507022703 7 250 1.6 3.2 0.00 0.89 0.89 87 1008.3
20260507021803 7 255 1.6 3.2 0.00 0.89 0.89 87 1008.4
20260507020924 6 275 3.2 6.4 0.00 0.89 0.89 87 1008.2
20260507020003 7 254 3.2 4.8 0.00 0.89 0.89 86 1008.3
20260507015424 7 252 1.6 3.2 0.00 0.89 0.89 85 1008.4
20260507014503 7 260 3.2 4.8 0.00 0.89 0.89 85 1008.3
20260507013603 7 273 0.0 4.8 0.00 0.89 0.89 86 1008.4
20260507012703 7 283 4.8 6.4 0.00 0.89 0.89 84 1008.6
20260507011803 7 274 6.4 9.7 0.00 0.89 0.89 83 1008.8
20260507010903 7 259 4.8 6.4 0.00 0.91 0.89 83 1008.8
20260507010003 7 282 3.2 6.4 0.00 0.91 0.89 84 1008.6
20260507005403 7 294 1.6 3.2 0.00 0.91 0.89 83 1008.6
20260507004504 7 253 0.0 3.2 0.00 0.91 0.89 81 1008.4
20260507003603 7 283 1.6 1.6 0.00 0.91 0.89 81 1008.3
20260507002704 7 294 4.8 4.8 0.00 0.91 0.89 81 1008.3
20260507001803 7 250 3.2 9.7 0.00 0.91 0.89 79 1008.2
20260507000903 8 251 1.6 6.4 0.00 0.91 0.89 80 1008.3
20260507000003 7 265 1.6 3.2 0.00 0.91 0.89 80 1008.0
20260506235403 7 291 3.2 4.8 0.00 0.91 0.89 81 1008.0
20260506234503 8 281 3.2 4.8 0.00 0.91 0.89 77 1007.7
20260506233603 8 241 3.2 3.2 0.00 0.91 0.89 75 1007.9
20260506232703 8 260 3.2 4.8 0.00 0.91 0.89 74 1007.9
20260506231804 8 252 4.8 6.4 0.00 0.91 0.89 75 1007.8
20260506230924 8 249 0.0 3.2 0.00 0.91 0.89 75 1007.6
20260506230024 8 262 1.6 4.8 0.00 0.91 0.89 75 1007.8
20260506225424 8 270 3.2 6.4 0.00 0.91 0.89 74 1007.6
20260506224503 8 258 1.6 3.2 0.00 0.91 0.89 74 1007.7
20260506223603 8 255 1.6 3.2 0.00 0.91 0.89 74 1007.7
20260506222704 8 241 3.2 4.8 0.00 0.91 0.89 73 1007.7
20260506221803 8 257 1.6 3.2 0.00 0.91 0.89 74 1007.6
20260506220902 8 271 3.2 3.2 0.00 0.91 0.89 73 1007.8
20260506220003 9 286 3.2 4.8 0.00 0.91 0.89 72 1008.0
20260506215403 9 284 0.0 1.6 0.00 0.91 0.89 74 1007.8
20260506214503 8 253 4.8 9.7 0.00 0.91 0.89 74 1007.9
20260506213624 8 260 3.2 4.8 0.00 0.91 0.89 74 1007.8
20260506212703 8 261 1.6 3.2 0.00 0.91 0.89 74 1007.7
20260506211803 8 257 3.2 4.8 0.00 0.91 0.89 75 1008.0
20260506210924 8 255 1.6 6.4 0.00 0.91 0.89 75 1007.9
20260506210003 8 270 1.6 4.8 0.00 0.91 0.89 77 1007.7
20260506205403 7 279 1.6 1.6 0.00 0.91 0.89 79 1007.8
20260506204503 7 252 4.8 4.8 0.00 0.91 0.89 79 1007.9
20260506203603 8 255 4.8 4.8 0.00 0.91 0.89 77 1008.0
20260506202703 8 278 1.6 1.6 0.00 0.91 0.89 78 1008.0
20260506201803 8 250 3.2 4.8 0.00 0.91 0.89 77 1008.0
20260506200903 8 282 1.6 1.6 0.00 0.91 0.89 77 1008.1
20260506200003 8 285 0.0 1.6 0.00 0.91 0.89 76 1008.1
20260506195403 8 30 1.6 1.6 0.00 0.91 0.89 77 1008.3
20260506194503 8 291 1.6 1.6 0.00 0.91 0.89 77 1008.3
20260506193603 8 293 1.6 1.6 0.00 0.91 0.89 79 1008.2
20260506192703 7 305 0.0 4.8 0.00 0.91 0.89 81 1008.5
20260506191803 7 273 0.0 1.6 0.00 0.91 0.89 80 1008.3
20260506190903 7 297 3.2 3.2 0.00 0.91 0.89 80 1008.3
20260506190003 7 294 3.2 4.8 0.00 0.91 0.89 82 1008.4
20260506185403 7 309 4.8 4.8 0.00 0.91 0.89 81 1008.3
20260506184524 7 268 1.6 1.6 0.00 0.91 0.89 79 1008.5
20260506183604 7 287 0.0 0.0 0.00 0.91 0.89 78 1008.6
20260506182703 7 310 1.6 3.2 0.00 0.91 0.89 80 1008.4
20260506181803 8 241 1.6 3.2 0.00 0.91 0.89 79 1008.1
20260506180904 7 268 1.6 3.2 0.00 0.91 0.89 81 1008.5
20260506180004 7 287 0.0 3.2 0.00 0.91 0.89 82 1008.3
20260506175403 7 288 3.2 4.8 0.00 0.91 0.89 84 1008.2
20260506174503 7 244 1.6 1.6 0.00 0.91 0.89 81 1008.7
20260506173603 7 217 1.6 1.6 0.00 0.91 0.89 82 1008.7
20260506172724 7 247 0.0 3.2 0.00 0.91 0.89 86 1008.7
20260506171803 7 272 3.2 4.8 0.00 0.91 0.89 87 1008.7
20260506170904 6 232 1.6 3.2 0.00 0.91 0.89 86 1009.1
20260506170024 6 275 1.6 3.2 0.00 0.91 0.89 88 1009.1
20260506165403 6 283 3.2 6.4 0.03 0.91 0.89 88 1009.1
20260506164503 6 191 3.2 3.2 0.03 0.91 0.89 87 1009.2
20260506163604 6 268 4.8 4.8 0.03 0.91 0.89 88 1009.6
20260506162703 6 296 6.4 6.4 0.03 0.91 0.89 88 1009.4
20260506161803 6 173 1.6 1.6 0.03 0.91 0.89 87 1009.3
20260506160924 6 206 0.0 1.6 0.05 0.91 0.89 87 1009.5
20260506160024 6 159 1.6 1.6 0.08 0.91 0.89 89 1009.6
20260506155424 6 226 0.0 1.6 0.08 0.89 0.86 90 1009.6
20260506154504 6 281 4.8 6.4 0.15 0.89 0.86 89 1009.6
20260506153603 6 241 1.6 3.2 0.20 0.89 0.86 88 1009.8
20260506152703 5 257 3.2 4.8 0.23 0.89 0.86 89 1009.6
20260506151803 6 222 0.0 1.6 0.25 0.89 0.86 91 1010.0
20260506150903 5 292 4.8 6.4 0.25 0.86 0.84 90 1009.9
20260506150003 5 240 1.6 3.2 0.25 0.84 0.81 92 1009.8
20260506145403 6 227 1.6 1.6 0.25 0.81 0.79 92 1009.9
20260506144503 5 240 1.6 3.2 0.20 0.74 0.71 92 1010.0
20260506143604 5 260 3.2 3.2 0.18 0.69 0.66 91 1009.9
20260506142703 5 238 3.2 4.8 0.18 0.66 0.64 90 1009.7
20260506141803 5 247 3.2 3.2 0.18 0.64 0.61 90 1009.7
20260506140903 6 247 1.6 1.6 0.15 0.61 0.58 91 1009.6
20260506140003 6 223 0.0 1.6 0.15 0.58 0.56 91 1009.6
20260506135403 6 208 1.6 1.6 0.13 0.56 0.53 92 1009.5
20260506134504 6 236 0.0 1.6 0.10 0.53 0.51 92 1009.7
20260506133603 6 253 0.0 1.6 0.08 0.51 0.48 92 1009.5
20260506132703 6 246 3.2 3.2 0.08 0.48 0.46 92 1009.6
20260506131804 6 286 4.8 6.4 0.08 0.46 0.43 91 1009.4
20260506130904 6 231 1.6 1.6 0.10 0.46 0.43 90 1009.3
20260506130005 6 232 1.6 1.6 0.08 0.43 0.41 89 1009.6
20260506125403 6 242 4.8 6.4 0.10 0.43 0.41 90 1009.4
20260506124503 6 254 0.0 0.0 0.13 0.43 0.41 90 1009.5
20260506123603 5 269 3.2 4.8 0.15 0.43 0.41 90 1009.5
20260506122703 6 233 3.2 9.7 0.15 0.41 0.38 89 1009.3
20260506121803 6 241 1.6 3.2 0.15 0.38 0.36 90 1009.5
20260506120924 6 284 3.2 6.4 0.15 0.36 0.33 91 1009.4
20260506120003 6 258 4.8 6.4 0.18 0.36 0.33 90 1009.7
20260506115403 6 244 3.2 4.8 0.18 0.33 0.30 90 1009.6
20260506114503 6 239 4.8 4.8 0.15 0.30 0.28 90 1009.6
20260506113603 6 240 3.2 4.8 0.15 0.28 0.25 89 1009.9
20260506112724 6 249 1.6 1.6 0.15 0.28 0.23 89 1010.0
20260506111803 6 245 3.2 3.2 0.15 0.28 0.20 89 1009.8
20260506110903 6 263 6.4 6.4 0.13 0.25 0.18 89 1009.9
20260506110003 6 264 1.6 4.8 0.13 0.23 0.15 90 1009.7
20260506105403 6 261 1.6 3.2 0.10 0.20 0.13 90 1009.8
20260506104503 7 273 3.2 6.4 0.10 0.20 0.13 89 1009.7
20260506103603 7 254 1.6 1.6 0.10 0.18 0.10 89 1009.5
20260506102703 7 268 3.2 4.8 0.08 0.15 0.08 89 1009.2
20260506101803 7 307 3.2 4.8 0.05 0.13 0.05 89 1008.9
20260506100903 7 247 0.0 1.6 0.05 0.13 0.05 88 1009.2
20260506100003 7 265 1.6 3.2 0.03 0.10 0.03 87 1008.8
20260506095403 7 252 1.6 1.6 0.03 0.10 0.03 88 1009.1
20260506094503 7 277 1.6 4.8 0.03 0.10 0.03 88 1009.0
20260506093603 7 271 3.2 4.8 0.00 0.08 0.00 85 1009.3
20260506092703 8 280 11.3 16.1 0.00 0.08 0.00 81 1009.0
20260506091803 8 257 6.4 14.5 0.00 0.08 0.00 80 1008.9
20260506090924 8 263 6.4 6.4 0.00 0.08 0.00 82 1008.9
20260506090003 8 276 8.0 11.3 0.00 0.08 0.00 81 1009.0
20260506085403 8 261 3.2 9.7 0.00 0.08 0.00 81 1008.7
20260506084503 8 246 3.2 3.2 0.00 0.08 0.00 81 1008.4
20260506083603 8 266 4.8 4.8 0.00 0.08 0.00 81 1008.5
20260506082703 8 273 8.0 12.9 0.00 0.08 0.00 81 1009.0
20260506081803 8 252 8.0 11.3 0.00 0.08 0.00 81 1008.9
20260506080903 8 275 6.4 12.9 0.00 0.08 0.00 81 1009.1
20260506072703 8 246 4.8 9.7 0.00 0.08 0.00 80 1008.9
20260506071804 8 256 3.2 11.3 0.00 0.08 0.00 80 1008.6
20260506070903 8 257 9.7 12.9 0.00 0.08 0.00 80 1008.7
20260506061803 9 249 3.2 4.8 0.00 0.08 0.00 81 1008.6
20260506060903 9 257 8.0 16.1 0.00 0.08 0.00 81 1008.2
20260506050903 10 273 4.8 12.9 0.00 0.08 0.00 82 1007.8
20260506044503 10 254 6.4 9.7 0.00 0.08 0.00 82 1008.0
20260506043603 10 261 9.7 16.1 0.00 0.08 0.00 82 1007.8
20260506042703 10 246 12.9 14.5 0.00 0.08 0.00 83 1007.6
20260506041803 10 250 4.8 9.7 0.00 0.08 0.00 83 1007.5
20260506040903 10 292 4.8 9.7 0.00 0.08 0.00 83 1007.4